Location: Eaton
(41.3139°N, 82.0207°W)
Time: 06:44:23
(UTC+00:00)

SL-16 R/B - Pass Details

Date: 17 June 2021
Orbit: 985 x 1007 km, 99.5° (Epoch: 27 July)

Event Time Altitude Azimuth Distance (km) Brightness Sun altitude
Exits shadow 06:26:23 16° 128° (SE) 2,319 4.2 -23.9°
Maximum altitude 06:30:49 41° 67° (ENE) 1,409 3.6 -23.7°
Drops below altitude 10° 06:36:32 10° 359° (N) 2,759 5.9 -23.4°
Sets 06:39:08 0° 353° (N) 3,709 6.6 -23.3°
